TimeCDT,TemperatureF,Dew PointF,Humidity,Sea Level PressureIn,VisibilityMPH,Wind Direction,Wind SpeedMPH,Gust SpeedMPH,PrecipitationIn,Events,Conditions,WindDirDegrees,DateUTC
12:53 AM,72.0,63.0,73,29.67,10.0,SSE,12.7,-,N/A,,Clear,160,2013-05-18 05:53:00
1:53 AM,71.1,64.9,81,29.65,10.0,SSE,9.2,-,N/A,,Clear,160,2013-05-18 06:53:00
2:53 AM,71.1,64.9,81,29.64,10.0,South,6.9,-,N/A,,Clear,170,2013-05-18 07:53:00
3:53 AM,71.1,64.0,78,29.62,10.0,South,10.4,-,N/A,,Clear,180,2013-05-18 08:53:00
4:53 AM,66.9,62.1,84,29.63,10.0,SSW,4.6,-,N/A,,Clear,200,2013-05-18 09:53:00
5:53 AM,64.9,61.0,87,29.63,8.0,Calm,Calm,-,N/A,,Clear,0,2013-05-18 10:53:00
6:53 AM,66.0,62.1,87,29.64,8.0,Calm,Calm,-,N/A,,Clear,0,2013-05-18 11:53:00
7:53 AM,69.1,62.1,78,29.64,9.0,Calm,Calm,-,N/A,,Clear,0,2013-05-18 12:53:00
8:53 AM,75.0,55.0,50,29.63,10.0,SSW,4.6,-,N/A,,Clear,200,2013-05-18 13:53:00
9:53 AM,84.0,48.0,28,29.62,10.0,SSW,9.2,-,N/A,,Clear,210,2013-05-18 14:53:00
10:53 AM,90.0,45.0,21,29.60,10.0,South,12.7,-,N/A,,Clear,180,2013-05-18 15:53:00
11:53 AM,93.9,42.1,17,29.58,10.0,SW,11.5,-,N/A,,Clear,220,2013-05-18 16:53:00
12:53 PM,98.1,27.0,8,29.55,10.0,SW,21.9,31.1,N/A,,Clear,220,2013-05-18 17:53:00
2:53 PM,98.1,27.0,8,29.51,10.0,WSW,26.5,32.2,N/A,,Clear,240,2013-05-18 19:53:00
3:53 PM,98.1,26.1,8,29.49,10.0,SW,17.3,31.1,N/A,,Clear,230,2013-05-18 20:53:00
4:53 PM,96.1,25.0,8,29.48,10.0,SW,24.2,29.9,N/A,,Clear,230,2013-05-18 21:53:00
5:53 PM,97.0,23.0,7,29.45,10.0,SW,24.2,34.5,N/A,,Clear,230,2013-05-18 22:53:00
6:53 PM,95.0,21.0,7,29.43,10.0,SW,26.5,34.5,N/A,,Clear,230,2013-05-18 23:53:00
7:53 PM,91.0,18.0,7,29.43,10.0,WSW,23.0,27.6,N/A,,Clear,240,2013-05-19 00:53:00
8:53 PM,84.9,18.0,8,29.43,10.0,WSW,20.7,-,N/A,,Clear,240,2013-05-19 01:53:00
9:53 PM,79.0,19.0,11,29.45,10.0,West,12.7,-,N/A,,Clear,260,2013-05-19 02:53:00
10:53 PM,77.0,19.9,12,29.48,10.0,West,12.7,-,N/A,,Clear,260,2013-05-19 03:53:00
11:53 PM,72.0,25.0,17,29.49,10.0,West,9.2,-,N/A,,Clear,280,2013-05-19 04:53:00